| time (UTC) | temp C | wind direction | speed KPH | gust KPH | rain 1hr cm | rain 24hr cm | rain mn cm | humidity % | barometer mb |
| 20260905060348 | 23 | 0.0 | 0.0 | 0.00 | 0.00 | 0.00 | 70 | 1016.3 | |
| 20260905055345 | 24 | 0.0 | 1.6 | 0.00 | 0.00 | 0.00 | 68 | 1016.2 | |
| 20260905054340 | 22 | 0.0 | 0.0 | 0.00 | 0.00 | 0.00 | 71 | 1016.1 | |
| 20260905053340 | 21 | 0.0 | 0.0 | 0.00 | 0.00 | 0.00 | 76 | 1016.1 | |
| 20260905052336 | 21 | 0.0 | 0.0 | 0.00 | 0.00 | 0.00 | 76 | 1016.0 | |
| 20260905051335 | 21 | 0.0 | 0.0 | 0.00 | 0.00 | 0.00 | 75 | 1015.9 | |
| 20260905050325 | 21 | 0.0 | 0.0 | 0.00 | 0.00 | 0.00 | 74 | 1015.8 | |
| 20260905045323 | 21 | 0.0 | 0.0 | 0.00 | 0.00 | 0.00 | 74 | 1015.7 | |
| 20260905044320 | 21 | 0.0 | 0.0 | 0.00 | 0.00 | 0.00 | 74 | 1015.5 | |
| 20260905042322 | 21 | 0.0 | 0.0 | 0.00 | 0.00 | 0.00 | 73 | 1015.2 | |
| 20260905041320 | 21 | 0.0 | 0.0 | 0.00 | 0.00 | 0.00 | 72 | 1015.4 | |
| 20260905040315 | 21 | 0.0 | 0.0 | 0.00 | 0.00 | 0.00 | 72 | 1015.5 | |
| 20260905035331 | 21 | 0.0 | 0.0 | 0.00 | 0.00 | 0.00 | 72 | 1015.7 | |
| 20260905034303 | 21 | 0.0 | 0.0 | 0.00 | 0.00 | 0.00 | 71 | 1015.6 | |
| 20260905033258 | 21 | 0.0 | 0.0 | 0.00 | 0.00 | 0.00 | 72 | 1015.7 | |
| 20260905032248 | 21 | 0.0 | 0.0 | 0.00 | 0.00 | 0.00 | 70 | 1016.0 | |
| 20260905031244 | 21 | 0.0 | 0.0 | 0.00 | 0.00 | 0.00 | 70 | 1016.2 | |
| 20260905030321 | 21 | 0.0 | 1.6 | 0.00 | 0.00 | 0.00 | 70 | 1015.9 | |
| 20260905025237 | 21 | 315 | 3.2 | 4.8 | 0.00 | 0.00 | 0.00 | 69 | 1015.7 |
| 20260905024233 | 21 | 0 | 0.0 | 1.6 | 0.00 | 0.00 | 0.00 | 66 | 1015.7 |
| 20260905023223 | 21 | 0.0 | 0.0 | 0.00 | 0.00 | 0.00 | 65 | 1015.8 | |
| 20260905022222 | 21 | 0.0 | 0.0 | 0.00 | 0.00 | 0.00 | 65 | 1015.9 | |
| 20260905020322 | 21 | 0.0 | 0.0 | 0.00 | 0.00 | 0.00 | 64 | 1016.0 | |
| 20260905014918 | 21 | 0.0 | 0.0 | 0.00 | 0.00 | 0.00 | 62 | 1016.2 | |
| 20260905013101 | 22 | 0.0 | 0.0 | 0.00 | 0.00 | 0.00 | 58 | 1016.1 | |
| 20260905012057 | 22 | 0.0 | 0.0 | 0.00 | 0.00 | 0.00 | 57 | 1016.1 | |
| 20260905005257 | 22 | 0.0 | 0.0 | 0.00 | 0.00 | 0.00 | 58 | 1016.4 | |
| 20260905002831 | 23 | 0.0 | 0.0 | 0.00 | 0.00 | 0.00 | 57 | 1016.5 | |
| 20260905001325 | 23 | 0.0 | 0.0 | 0.00 | 0.00 | 0.00 | 58 | 1016.5 | |
| 20260905000321 | 23 | 0.0 | 0.0 | 0.00 | 0.00 | 0.00 | 58 | 1016.6 | |
| 20260904234057 | 24 | 0.0 | 0.0 | 0.00 | 0.00 | 0.00 | 53 | 1016.8 | |
| 20260904232242 | 24 | 0.0 | 0.0 | 0.00 | 0.00 | 0.00 | 53 | 1016.7 | |
| 20260904224544 | 25 | 0.0 | 0.0 | 0.00 | 0.00 | 0.00 | 51 | 1016.7 | |
| 20260904223121 | 25 | 0.0 | 0.0 | 0.00 | 0.00 | 0.00 | 51 | 1016.8 | |
| 20260904221657 | 25 | 0.0 | 0.0 | 0.00 | 0.00 | 0.00 | 50 | 1016.9 | |
| 20260904220158 | 25 | 0.0 | 0.0 | 0.00 | 0.00 | 0.00 | 48 | 1016.7 | |
| 20260904215152 | 25 | 0.0 | 0.0 | 0.00 | 0.00 | 0.00 | 47 | 1016.8 | |
| 20260904212724 | 26 | 0.0 | 0.0 | 0.00 | 0.00 | 0.00 | 45 | 1017.0 | |
| 20260904211657 | 26 | 0.0 | 0.0 | 0.00 | 0.00 | 0.00 | 45 | 1017.0 | |
| 20260904205718 | 26 | 0.0 | 0.0 | 0.00 | 0.00 | 0.00 | 43 | 1017.2 | |
| 20260904203713 | 26 | 0.0 | 0.0 | 0.00 | 0.00 | 0.00 | 43 | 1017.4 | |
| 20260904202729 | 27 | 0.0 | 0.0 | 0.00 | 0.00 | 0.00 | 42 | 1017.2 | |
| 20260904201658 | 27 | 292 | 0.0 | 1.6 | 0.00 | 0.00 | 0.00 | 41 | 1017.3 |
| 20260904200329 | 27 | 315 | 1.6 | 3.2 | 0.00 | 0.00 | 0.00 | 40 | 1017.0 |
| 20260904195325 | 27 | 0.0 | 1.6 | 0.00 | 0.00 | 0.00 | 40 | 1017.1 | |
| 20260904194322 | 27 | 315 | 0.0 | 1.6 | 0.00 | 0.00 | 0.00 | 40 | 1017.1 |
| 20260904192328 | 28 | 0.0 | 0.0 | 0.00 | 0.00 | 0.00 | 41 | 1017.0 | |
| 20260904191326 | 28 | 0.0 | 0.0 | 0.00 | 0.00 | 0.00 | 40 | 1017.1 | |
| 20260904190322 | 28 | 315 | 1.6 | 4.8 | 0.00 | 0.00 | 0.00 | 41 | 1017.0 |
| 20260904184837 | 28 | 315 | 1.6 | 3.2 | 0.00 | 0.00 | 0.00 | 48 | 1017.0 |
| 20260904183813 | 29 | 0.0 | 0.0 | 0.00 | 0.00 | 0.00 | 50 | 1016.8 | |
| 20260904182811 | 29 | 0.0 | 0.0 | 0.00 | 0.00 | 0.00 | 50 | 1016.7 | |
| 20260904181332 | 30 | 0.0 | 0.0 | 0.00 | 0.00 | 0.00 | 48 | 1016.5 | |
| 20260904180329 | 30 | 0.0 | 0.0 | 0.00 | 0.00 | 0.00 | 47 | 1016.4 | |
| 20260904175324 | 30 | 0.0 | 0.0 | 0.00 | 0.00 | 0.00 | 46 | 1016.4 | |
| 20260904174321 | 31 | 0.0 | 0.0 | 0.00 | 0.00 | 0.00 | 45 | 1016.5 | |
| 20260904172323 | 31 | 0.0 | 0.0 | 0.00 | 0.00 | 0.00 | 44 | 1016.2 | |
| 20260904171313 | 31 | 0.0 | 0.0 | 0.00 | 0.00 | 0.00 | 44 | 1016.4 | |
| 20260904170302 | 32 | 0.0 | 1.6 | 0.00 | 0.00 | 0.00 | 43 | 1016.2 | |
| 20260904165258 | 32 | 0.0 | 1.6 | 0.00 | 0.00 | 0.00 | 43 | 1016.6 | |
| 20260904163400 | 32 | 0.0 | 0.0 | 0.00 | 0.00 | 0.00 | 39 | 1016.6 | |
| 20260904162357 | 32 | 0.0 | 0.0 | 0.00 | 0.00 | 0.00 | 39 | 1016.4 | |
| 20260904161348 | 32 | 0.0 | 0.0 | 0.00 | 0.00 | 0.00 | 42 | 1016.7 | |
| 20260904160337 | 32 | 0.0 | 0.0 | 0.00 | 0.00 | 0.00 | 42 | 1016.5 | |
| 20260904155334 | 32 | 315 | 1.6 | 3.2 | 0.00 | 0.00 | 0.00 | 42 | 1016.7 |
| 20260904154327 | 33 | 0.0 | 0.0 | 0.00 | 0.00 | 0.00 | 41 | 1016.8 | |
| 20260904153324 | 33 | 315 | 0.0 | 1.6 | 0.00 | 0.00 | 0.00 | 41 | 1016.7 |
| 20260904152402 | 33 | 0.0 | 0.0 | 0.00 | 0.00 | 0.00 | 39 | 1016.8 | |
| 20260904150350 | 33 | 0.0 | 0.0 | 0.00 | 0.00 | 0.00 | 38 | 1017.0 | |
| 20260904145410 | 33 | 0.0 | 1.6 | 0.00 | 0.00 | 0.00 | 39 | 1017.0 | |
| 20260904144342 | 33 | 315 | 0.0 | 1.6 | 0.00 | 0.00 | 0.00 | 39 | 1017.2 |
| 20260904143339 | 33 | 0.0 | 1.6 | 0.00 | 0.00 | 0.00 | 40 | 1017.1 | |
| 20260904142335 | 32 | 315 | 4.8 | 9.7 | 0.00 | 0.00 | 0.00 | 43 | 1017.0 |
| 20260904141326 | 33 | 0.0 | 0.0 | 0.00 | 0.00 | 0.00 | 42 | 1017.1 | |
| 20260904131256 | 32 | 337 | 0.0 | 3.2 | 0.00 | 0.00 | 0.00 | 44 | 1017.7 |
| 20260904125437 | 32 | 315 | 0.0 | 3.2 | 0.00 | 0.00 | 0.00 | 44 | 1018.1 |
| 20260904124434 | 32 | 337 | 0.0 | 1.6 | 0.00 | 0.00 | 0.00 | 45 | 1017.9 |
| 20260904123430 | 31 | 165 | 4.8 | 9.7 | 0.00 | 0.00 | 0.00 | 46 | 1018.1 |
| 20260904122447 | 30 | 315 | 4.8 | 9.7 | 0.00 | 0.00 | 0.00 | 48 | 1018.1 |
| 20260904121423 | 32 | 157 | 1.6 | 4.8 | 0.00 | 0.00 | 0.00 | 44 | 1018.4 |
| 20260904120419 | 32 | 315 | 1.6 | 3.2 | 0.00 | 0.00 | 0.00 | 45 | 1018.4 |
| 20260904115415 | 32 | 0.0 | 0.0 | 0.00 | 0.00 | 0.00 | 45 | 1018.3 | |
| 20260904114413 | 31 | 112 | 0.0 | 3.2 | 0.00 | 0.00 | 0.00 | 48 | 1018.6 |
| 20260904113409 | 30 | 315 | 6.4 | 9.7 | 0.00 | 0.00 | 0.00 | 48 | 1018.9 |
| 20260904111902 | 31 | 315 | 3.2 | 6.4 | 0.00 | 0.00 | 0.00 | 46 | 1018.8 |
| 20260904110112 | 32 | 315 | 0.0 | 4.8 | 0.00 | 0.00 | 0.00 | 44 | 1019.0 |
| 20260904105109 | 30 | 337 | 0.0 | 3.2 | 0.00 | 0.00 | 0.00 | 50 | 1019.1 |
| 20260904104058 | 30 | 112 | 0.0 | 3.2 | 0.00 | 0.00 | 0.00 | 50 | 1018.8 |
| 20260904102701 | 30 | 0 | 1.6 | 6.4 | 0.00 | 0.00 | 0.00 | 50 | 1019.3 |
| 20260904101657 | 29 | 315 | 4.8 | 6.4 | 0.00 | 0.00 | 0.00 | 52 | 1019.3 |
| 20260904095658 | 30 | 90 | 1.6 | 4.8 | 0.00 | 0.00 | 0.00 | 49 | 1019.4 |
| 20260904094410 | 28 | 292 | 1.6 | 3.2 | 0.00 | 0.00 | 0.00 | 53 | 1019.5 |
| 20260904092912 | 30 | 292 | 1.6 | 3.2 | 0.00 | 0.00 | 0.00 | 52 | 1019.7 |
| 20260904091902 | 29 | 0.0 | 1.6 | 0.00 | 0.00 | 0.00 | 53 | 1019.5 | |
| 20260904090859 | 29 | 135 | 1.6 | 3.2 | 0.00 | 0.00 | 0.00 | 52 | 1019.7 |
| 20260904085530 | 28 | 0.0 | 0.0 | 0.00 | 0.00 | 0.00 | 55 | 1019.5 | |
| 20260904084525 | 28 | 112 | 0.0 | 3.2 | 0.00 | 0.00 | 0.00 | 55 | 1019.5 |
| 20260904083521 | 28 | 0.0 | 1.6 | 0.00 | 0.00 | 0.00 | 55 | 1019.6 | |
| 20260904082033 | 26 | 315 | 3.2 | 6.4 | 0.00 | 0.00 | 0.00 | 58 | 1019.6 |
| 20260904081030 | 27 | 292 | 1.6 | 3.2 | 0.00 | 0.00 | 0.00 | 58 | 1019.4 |
| 20260904080024 | 27 | 292 | 0.0 | 3.2 | 0.00 | 0.00 | 0.00 | 55 | 1019.5 |
| 20260904075042 | 26 | 315 | 4.8 | 6.4 | 0.00 | 0.00 | 0.00 | 58 | 1019.7 |
| 20260904074015 | 27 | 315 | 3.2 | 4.8 | 0.00 | 0.00 | 0.00 | 56 | 1019.4 |
| 20260904073012 | 26 | 292 | 3.2 | 3.2 | 0.00 | 0.00 | 0.00 | 58 | 1019.2 |
| 20260904072009 | 25 | 292 | 1.6 | 3.2 | 0.00 | 0.00 | 0.00 | 60 | 1019.3 |
| 20260904071005 | 25 | 315 | 3.2 | 3.2 | 0.00 | 0.00 | 0.00 | 61 | 1019.1 |
| 20260904070124 | 25 | 292 | 1.6 | 3.2 | 0.00 | 0.00 | 0.00 | 61 | 1019.1 |
| 20260904065501 | 25 | 292 | 3.2 | 4.8 | 0.00 | 0.00 | 0.00 | 61 | 1019.3 |
| 20260904064458 | 24 | 315 | 1.6 | 4.8 | 0.00 | 0.00 | 0.00 | 64 | 1018.9 |
| 20260904063049 | 23 | 315 | 1.6 | 3.2 | 0.00 | 0.00 | 0.00 | 65 | 1019.1 |
| 20260904062045 | 23 | 315 | 1.6 | 3.2 | 0.00 | 0.00 | 0.00 | 64 | 1018.8 |